Time,TemperatureF,DewpointF,PressureIn,WindDirection,WindDirectionDegrees,WindSpeedMPH,WindSpeedGustMPH,Humidity,HourlyPrecipIn,Conditions,Clouds,dailyrainin,SoftwareType,DateUTC
2013-03-07 00:05:00,45.3,32.0,30.13,WNW,286,0.0,-999.0,61,-99.99,,,0.00,weatherlink.com 1.10,2013-03-07 05:05:00,
2013-03-07 00:20:00,45.0,33.0,30.13,West,269,0.0,-999.0,62,-99.99,,,0.00,weatherlink.com 1.10,2013-03-07 05:20:00,
2013-03-07 00:35:00,44.5,32.0,30.13,NNW,336,0.0,-999.0,63,-99.99,,,0.00,weatherlink.com 1.10,2013-03-07 05:35:00,
2013-03-07 00:50:00,44.0,33.0,30.13,NNW,336,0.0,-999.0,65,-99.99,,,0.00,weatherlink.com 1.10,2013-03-07 05:50:00,
2013-03-07 01:05:00,43.6,33.0,30.13,NW,318,0.0,-999.0,66,-99.99,,,0.00,weatherlink.com 1.10,2013-03-07 06:05:00,
2013-03-07 01:20:00,43.4,32.0,30.14,WSW,256,0.0,-999.0,65,-99.99,,,0.00,weatherlink.com 1.10,2013-03-07 06:20:00,
2013-03-07 01:35:00,43.2,32.0,30.14,West,280,0.0,-999.0,65,-99.99,,,0.00,weatherlink.com 1.10,2013-03-07 06:35:00,
2013-03-07 01:50:00,42.7,33.0,30.15,West,280,0.0,-999.0,68,-99.99,,,0.00,weatherlink.com 1.10,2013-03-07 06:50:00,
2013-03-07 02:05:00,42.0,33.0,30.15,West,280,0.0,-999.0,70,-99.99,,,0.00,weatherlink.com 1.10,2013-03-07 07:05:00,
2013-03-07 02:16:00,41.8,32.7,30.16,WNW,287,0.0,0.0,70,0.00,,,0.00,Wunderground v.1.15,2013-03-07 07:16:00,
2013-03-07 02:21:00,41.9,32.8,30.16,WNW,285,0.0,1.0,70,0.00,,,0.00,Wunderground v.1.15,2013-03-07 07:21:00,
2013-03-07 02:26:00,41.8,33.1,30.15,WNW,285,0.0,0.0,71,0.00,,,0.00,Wunderground v.1.15,2013-03-07 07:26:00,
2013-03-07 02:31:00,41.5,32.4,30.14,WNW,285,0.0,8.0,70,0.00,,,0.00,Wunderground v.1.15,2013-03-07 07:31:00,
2013-03-07 02:36:00,41.3,33.0,30.14,West,281,0.0,-999.0,71,-99.99,,,0.00,weatherlink.com 1.10,2013-03-07 07:36:00,
2013-03-07 02:42:00,41.3,32.6,30.15,WNW,285,0.0,8.0,71,0.00,,,0.00,Wunderground v.1.15,2013-03-07 07:42:00,
2013-03-07 02:48:00,41.4,32.7,30.16,West,271,0.0,8.0,71,0.00,,,0.00,Wunderground v.1.15,2013-03-07 07:48:00,
2013-03-07 02:53:00,41.5,32.4,30.15,West,263,0.0,8.0,70,0.00,,,0.00,Wunderground v.1.15,2013-03-07 07:53:00,
2013-03-07 02:59:00,41.4,32.3,30.16,West,262,0.0,8.0,70,0.00,,,0.00,Wunderground v.1.15,2013-03-07 07:59:00,
2013-03-07 03:05:00,41.3,32.2,30.15,West,261,0.0,8.0,70,0.00,,,0.00,Wunderground v.1.15,2013-03-07 08:05:00,
2013-03-07 03:11:00,41.2,32.5,30.15,West,266,0.0,8.0,71,0.00,,,0.00,Wunderground v.1.15,2013-03-07 08:11:00,
2013-03-07 03:16:00,41.2,32.5,30.15,West,266,0.0,8.0,71,0.00,,,0.00,Wunderground v.1.15,2013-03-07 08:16:00,
2013-03-07 03:22:00,41.2,32.2,30.15,West,266,0.0,8.0,70,0.00,,,0.00,Wunderground v.1.15,2013-03-07 08:22:00,
2013-03-07 03:28:00,41.1,32.1,30.15,West,266,0.0,8.0,70,0.00,,,0.00,Wunderground v.1.15,2013-03-07 08:28:00,
2013-03-07 03:34:00,40.9,32.2,30.15,West,266,0.0,8.0,71,0.00,,,0.00,Wunderground v.1.15,2013-03-07 08:34:00,
2013-03-07 03:39:00,40.8,32.1,30.15,West,266,0.0,8.0,71,0.00,,,0.00,Wunderground v.1.15,2013-03-07 08:39:00,
2013-03-07 03:45:00,40.7,32.4,30.15,West,266,0.0,8.0,72,0.00,,,0.00,Wunderground v.1.15,2013-03-07 08:45:00,
2013-03-07 03:51:00,40.5,32.0,30.14,West,263,0.0,-999.0,72,-99.99,,,0.00,weatherlink.com 1.10,2013-03-07 08:51:00,
2013-03-07 03:56:00,40.5,32.2,30.15,West,266,0.0,8.0,72,0.00,,,0.00,Wunderground v.1.15,2013-03-07 08:56:00,
2013-03-07 04:02:00,40.2,32.2,30.15,West,266,0.0,8.0,73,0.00,,,0.00,Wunderground v.1.15,2013-03-07 09:02:00,
2013-03-07 04:07:00,40.1,32.1,30.15,West,266,0.0,8.0,73,0.00,,,0.00,Wunderground v.1.15,2013-03-07 09:07:00,
2013-03-07 04:13:00,40.1,32.5,30.15,West,266,0.0,8.0,74,0.00,,,0.00,Wunderground v.1.15,2013-03-07 09:13:00,
2013-03-07 04:19:00,40.1,32.8,30.16,West,266,0.0,8.0,75,0.00,,,0.00,Wunderground v.1.15,2013-03-07 09:19:00,
2013-03-07 04:25:00,40.0,32.4,30.16,West,266,0.0,8.0,74,0.00,,,0.00,Wunderground v.1.15,2013-03-07 09:25:00,
2013-03-07 04:30:00,40.0,32.7,30.16,West,271,0.0,8.0,75,0.00,,,0.00,Wunderground v.1.15,2013-03-07 09:30:00,
2013-03-07 04:36:00,40.1,32.5,30.17,West,263,0.0,8.0,74,0.00,,,0.00,Wunderground v.1.15,2013-03-07 09:36:00,
2013-03-07 04:41:00,40.0,32.4,30.17,West,262,0.0,8.0,74,0.00,,,0.00,Wunderground v.1.15,2013-03-07 09:41:00,
2013-03-07 04:47:00,40.0,32.4,30.17,West,279,0.0,8.0,74,0.00,,,0.00,Wunderground v.1.15,2013-03-07 09:47:00,
2013-03-07 04:53:00,39.9,32.3,30.17,West,280,0.0,8.0,74,0.00,,,0.00,Wunderground v.1.15,2013-03-07 09:53:00,
2013-03-07 04:59:00,39.8,32.2,30.17,West,280,0.0,8.0,74,0.00,,,0.00,Wunderground v.1.15,2013-03-07 09:59:00,
2013-03-07 05:04:00,39.7,32.1,30.17,West,279,0.0,8.0,74,0.00,,,0.00,Wunderground v.1.15,2013-03-07 10:04:00,
2013-03-07 05:10:00,39.6,32.3,30.16,West,274,0.0,8.0,75,0.00,,,0.00,Wunderground v.1.15,2013-03-07 10:10:00,
2013-03-07 05:15:00,39.6,32.3,30.16,West,274,0.0,8.0,75,0.00,,,0.00,Wunderground v.1.15,2013-03-07 10:15:00,
2013-03-07 05:21:00,39.6,32.3,30.16,West,278,0.0,8.0,75,0.00,,,0.00,Wunderground v.1.15,2013-03-07 10:21:00,
2013-03-07 05:26:00,39.5,32.6,30.16,West,278,0.0,8.0,76,0.00,,,0.00,Wunderground v.1.15,2013-03-07 10:26:00,
2013-03-07 05:32:00,39.5,32.6,30.17,West,278,0.0,8.0,76,0.00,,,0.00,Wunderground v.1.15,2013-03-07 10:32:00,
2013-03-07 05:37:00,39.5,32.6,30.17,West,278,0.0,8.0,76,0.00,,,0.00,Wunderground v.1.15,2013-03-07 10:37:00,
2013-03-07 05:43:00,39.4,32.8,30.18,West,278,0.0,8.0,77,0.00,,,0.00,Wunderground v.1.15,2013-03-07 10:43:00,
2013-03-07 05:48:00,39.3,32.7,30.18,WSW,252,0.0,8.0,77,0.00,,,0.00,Wunderground v.1.15,2013-03-07 10:48:00,
2013-03-07 05:54:00,39.2,32.6,30.18,WSW,252,0.0,8.0,77,0.00,,,0.00,Wunderground v.1.15,2013-03-07 10:54:00,
2013-03-07 05:59:00,39.0,32.4,30.18,WSW,252,0.0,8.0,77,0.00,,,0.00,Wunderground v.1.15,2013-03-07 10:59:00,
2013-03-07 06:05:00,38.8,32.5,30.18,WSW,252,0.0,8.0,78,0.00,,,0.00,Wunderground v.1.15,2013-03-07 11:05:00,
2013-03-07 06:10:00,38.7,32.4,30.18,WSW,252,0.0,8.0,78,0.00,,,0.00,Wunderground v.1.15,2013-03-07 11:10:00,
2013-03-07 06:16:00,38.5,32.6,30.18,WSW,252,0.0,8.0,79,0.00,,,0.00,Wunderground v.1.15,2013-03-07 11:16:00,
2013-03-07 06:21:00,38.4,32.8,30.18,WSW,252,0.0,8.0,80,0.00,,,0.00,Wunderground v.1.15,2013-03-07 11:21:00,
2013-03-07 06:27:00,38.3,32.7,30.18,WSW,252,0.0,8.0,80,0.00,,,0.00,Wunderground v.1.15,2013-03-07 11:27:00,
2013-03-07 06:33:00,38.2,32.9,30.18,WSW,252,0.0,8.0,81,0.00,,,0.00,Wunderground v.1.15,2013-03-07 11:33:00,
2013-03-07 06:38:00,38.2,32.6,30.18,WSW,252,0.0,8.0,80,0.00,,,0.00,Wunderground v.1.15,2013-03-07 11:38:00,
2013-03-07 06:43:00,38.1,32.5,30.18,WSW,252,0.0,8.0,80,0.00,,,0.00,Wunderground v.1.15,2013-03-07 11:43:00,
2013-03-07 06:48:00,38.1,32.5,30.18,WSW,252,0.0,8.0,80,0.00,,,0.00,Wunderground v.1.15,2013-03-07 11:48:00,
2013-03-07 06:53:00,38.0,32.7,30.18,West,274,0.0,1.0,81,0.00,,,0.00,Wunderground v.1.15,2013-03-07 11:53:00,
2013-03-07 06:58:00,38.1,33.1,30.19,West,273,0.0,1.0,82,0.00,,,0.00,Wunderground v.1.15,2013-03-07 11:58:00,
2013-03-07 07:03:00,38.0,33.0,30.19,West,273,0.0,0.0,82,0.00,,,0.00,Wunderground v.1.15,2013-03-07 12:03:00,
2013-03-07 07:08:00,38.0,32.7,30.19,West,273,0.0,0.0,81,0.00,,,0.00,Wunderground v.1.15,2013-03-07 12:08:00,
2013-03-07 07:13:00,38.1,33.1,30.19,West,271,0.0,1.0,82,0.00,,,0.00,Wunderground v.1.15,2013-03-07 12:13:00,
2013-03-07 07:18:00,38.1,32.8,30.19,West,273,0.0,1.0,81,0.00,,,0.00,Wunderground v.1.15,2013-03-07 12:18:00,
2013-03-07 07:23:00,38.2,33.2,30.19,West,273,0.0,0.0,82,0.00,,,0.00,Wunderground v.1.15,2013-03-07 12:23:00,
2013-03-07 07:28:00,38.4,33.1,30.20,WNW,298,0.0,1.0,81,0.00,,,0.00,Wunderground v.1.15,2013-03-07 12:28:00,
2013-03-07 07:33:00,38.6,33.6,30.20,WNW,296,1.0,1.0,82,0.00,,,0.00,Wunderground v.1.15,2013-03-07 12:33:00,
2013-03-07 07:38:00,38.9,33.6,30.20,WNW,296,0.0,1.0,81,0.00,,,0.00,Wunderground v.1.15,2013-03-07 12:38:00,
2013-03-07 07:44:00,39.3,33.6,30.20,WNW,297,0.0,1.0,80,0.00,,,0.00,Wunderground v.1.15,2013-03-07 12:44:00,
2013-03-07 07:49:00,39.9,34.2,30.20,WNW,297,0.0,1.0,80,0.00,,,0.00,Wunderground v.1.15,2013-03-07 12:49:00,
2013-03-07 07:54:00,40.7,34.4,30.21,WNW,293,0.0,2.0,78,0.00,,,0.00,Wunderground v.1.15,2013-03-07 12:54:00,
2013-03-07 07:59:00,41.2,34.9,30.21,NW,309,0.0,2.0,78,0.00,,,0.00,Wunderground v.1.15,2013-03-07 12:59:00,
2013-03-07 08:04:00,41.8,35.1,30.21,NW,323,0.0,1.0,77,0.00,,,0.00,Wunderground v.1.15,2013-03-07 13:04:00,
2013-03-07 08:09:00,42.3,34.9,30.21,NW,314,0.0,1.0,75,0.00,,,0.00,Wunderground v.1.15,2013-03-07 13:09:00,
2013-03-07 08:14:00,42.8,36.1,30.21,NW,314,0.0,0.0,77,0.00,,,0.00,Wunderground v.1.15,2013-03-07 13:14:00,
2013-03-07 08:19:00,43.5,36.1,30.21,NW,314,0.0,0.0,75,0.00,,,0.00,Wunderground v.1.15,2013-03-07 13:19:00,
2013-03-07 08:24:00,44.0,36.2,30.21,WNW,301,0.0,1.0,74,0.00,,,0.00,Wunderground v.1.15,2013-03-07 13:24:00,
2013-03-07 08:29:00,44.7,36.9,30.20,West,268,1.0,1.0,74,0.00,,,0.00,Wunderground v.1.15,2013-03-07 13:29:00,
2013-03-07 08:34:00,45.2,36.7,30.20,WNW,298,0.0,1.0,72,0.00,,,0.00,Wunderground v.1.15,2013-03-07 13:34:00,
2013-03-07 08:39:00,46.5,38.3,30.21,SSW,196,0.0,3.0,73,0.00,,,0.00,Wunderground v.1.15,2013-03-07 13:39:00,
2013-03-07 08:44:00,47.0,38.1,30.21,NW,319,1.0,2.0,71,0.00,,,0.00,Wunderground v.1.15,2013-03-07 13:44:00,
2013-03-07 08:49:00,47.0,37.7,30.21,WNW,295,1.0,2.0,70,0.00,,,0.00,Wunderground v.1.15,2013-03-07 13:49:00,
2013-03-07 08:54:00,47.3,38.7,30.22,WNW,294,1.0,1.0,72,0.00,,,0.00,Wunderground v.1.15,2013-03-07 13:54:00,
2013-03-07 08:59:00,48.4,39.4,30.22,WNW,301,0.0,2.0,71,0.00,,,0.00,Wunderground v.1.15,2013-03-07 13:59:00,
2013-03-07 09:04:00,48.9,39.9,30.22,West,273,0.0,3.0,71,0.00,,,0.00,Wunderground v.1.15,2013-03-07 14:04:00,
2013-03-07 09:09:00,49.8,40.4,30.23,NW,314,1.0,3.0,70,0.00,,,0.00,Wunderground v.1.15,2013-03-07 14:09:00,
2013-03-07 09:14:00,50.2,40.8,30.23,WNW,296,0.0,2.0,70,0.00,,,0.00,Wunderground v.1.15,2013-03-07 14:14:00,
2013-03-07 09:19:00,50.5,41.8,30.23,WNW,287,0.0,2.0,72,0.00,,,0.00,Wunderground v.1.15,2013-03-07 14:19:00,
2013-03-07 09:24:00,50.9,40.7,30.24,WNW,294,1.0,2.0,68,0.00,,,0.00,Wunderground v.1.15,2013-03-07 14:24:00,
2013-03-07 09:29:00,50.7,40.5,30.24,NW,321,0.0,2.0,68,0.00,,,0.00,Wunderground v.1.15,2013-03-07 14:29:00,
2013-03-07 09:34:00,51.0,41.6,30.23,NW,324,0.0,2.0,70,0.00,,,0.00,Wunderground v.1.15,2013-03-07 14:34:00,
2013-03-07 09:39:00,51.8,41.6,30.23,NW,319,1.0,2.0,68,0.00,,,0.00,Wunderground v.1.15,2013-03-07 14:39:00,
2013-03-07 09:45:00,52.2,42.3,30.23,East,81,1.0,1.0,69,0.00,,,0.00,Wunderground v.1.15,2013-03-07 14:45:00,
2013-03-07 09:50:00,52.3,41.7,30.23,NNE,30,0.0,1.0,67,0.00,,,0.00,Wunderground v.1.15,2013-03-07 14:50:00,
2013-03-07 09:55:00,52.6,41.9,30.23,NE,42,0.0,4.0,67,0.00,,,0.00,Wunderground v.1.15,2013-03-07 14:55:00,
2013-03-07 10:00:00,52.9,43.0,30.23,ESE,111,0.0,1.0,69,0.00,,,0.00,Wunderground v.1.15,2013-03-07 15:00:00,
2013-03-07 10:05:00,53.1,42.0,30.22,SE,146,1.0,5.0,66,0.00,,,0.00,Wunderground v.1.15,2013-03-07 15:05:00,
2013-03-07 10:10:00,53.1,41.6,30.22,NNE,27,0.0,2.0,65,0.00,,,0.00,Wunderground v.1.15,2013-03-07 15:10:00,
2013-03-07 10:15:00,53.6,42.1,30.22,SE,129,0.0,3.0,65,0.00,,,0.00,Wunderground v.1.15,2013-03-07 15:15:00,
2013-03-07 10:20:00,53.8,44.2,30.22,SE,127,3.0,3.0,70,0.00,,,0.00,Wunderground v.1.15,2013-03-07 15:20:00,
2013-03-07 10:25:00,53.1,42.0,30.22,ESE,117,2.0,7.0,66,0.00,,,0.00,Wunderground v.1.15,2013-03-07 15:25:00,
2013-03-07 10:30:00,53.4,43.9,30.22,East,100,1.0,2.0,70,0.00,,,0.00,Wunderground v.1.15,2013-03-07 15:30:00,
2013-03-07 10:35:00,53.3,42.6,30.23,WSW,250,1.0,5.0,67,0.00,,,0.00,Wunderground v.1.15,2013-03-07 15:35:00,
2013-03-07 10:40:00,54.2,43.5,30.23,East,94,1.0,5.0,67,0.00,,,0.00,Wunderground v.1.15,2013-03-07 15:40:00,
2013-03-07 10:45:00,53.8,42.3,30.23,ENE,73,0.0,5.0,65,0.00,,,0.00,Wunderground v.1.15,2013-03-07 15:45:00,
2013-03-07 10:50:00,54.2,43.5,30.23,ESE,120,3.0,3.0,67,0.00,,,0.00,Wunderground v.1.15,2013-03-07 15:50:00,
2013-03-07 10:56:00,54.8,42.4,30.23,WNW,295,0.0,3.0,63,0.00,,,0.00,Wunderground v.1.15,2013-03-07 15:56:00,
2013-03-07 11:01:00,55.4,43.0,30.23,West,274,0.0,1.0,63,0.00,,,0.00,Wunderground v.1.15,2013-03-07 16:01:00,
2013-03-07 11:06:00,56.2,41.6,30.23,ESE,107,6.0,6.0,58,0.00,,,0.00,Wunderground v.1.15,2013-03-07 16:06:00,
2013-03-07 11:10:00,55.8,41.7,30.23,ENE,77,1.0,2.0,59,0.00,,,0.00,Wunderground v.1.15,2013-03-07 16:10:00,
2013-03-07 11:16:00,56.0,42.7,30.23,ESE,105,1.0,6.0,61,0.00,,,0.00,Wunderground v.1.15,2013-03-07 16:16:00,
2013-03-07 11:21:00,55.6,41.5,30.22,ESE,115,1.0,2.0,59,0.00,,,0.00,Wunderground v.1.15,2013-03-07 16:21:00,
2013-03-07 11:26:00,55.2,42.0,30.22,East,98,3.0,6.0,61,0.00,,,0.00,Wunderground v.1.15,2013-03-07 16:26:00,
2013-03-07 11:31:00,54.7,41.5,30.22,ESE,110,2.0,6.0,61,0.00,,,0.00,Wunderground v.1.15,2013-03-07 16:31:00,
2013-03-07 11:36:00,54.8,42.9,30.22,ENE,68,2.0,6.0,64,0.00,,,0.00,Wunderground v.1.15,2013-03-07 16:36:00,
2013-03-07 11:42:00,55.5,42.7,30.23,SE,131,2.0,3.0,62,0.00,,,0.00,Wunderground v.1.15,2013-03-07 16:42:00,
2013-03-07 11:47:00,56.2,44.6,30.22,North,349,1.0,3.0,65,0.00,,,0.00,Wunderground v.1.15,2013-03-07 16:47:00,
2013-03-07 11:52:00,56.7,42.5,30.23,SW,219,0.0,6.0,59,0.00,,,0.00,Wunderground v.1.15,2013-03-07 16:52:00,
2013-03-07 11:57:00,56.7,43.0,30.22,ESE,115,5.0,9.0,60,0.00,,,0.00,Wunderground v.1.15,2013-03-07 16:57:00,
2013-03-07 12:02:00,56.0,44.0,30.23,NE,39,0.0,4.0,64,0.00,,,0.00,Wunderground v.1.15,2013-03-07 17:02:00,
2013-03-07 12:07:00,55.8,43.4,30.23,ESE,116,2.0,6.0,63,0.00,,,0.00,Wunderground v.1.15,2013-03-07 17:07:00,
2013-03-07 12:12:00,56.2,43.8,30.22,NNE,12,0.0,3.0,63,0.00,,,0.00,Wunderground v.1.15,2013-03-07 17:12:00,
2013-03-07 12:17:00,57.0,44.5,30.22,North,358,1.0,3.0,63,0.00,,,0.00,Wunderground v.1.15,2013-03-07 17:17:00,
2013-03-07 12:22:00,57.4,44.1,30.22,East,94,4.0,6.0,61,0.00,,,0.00,Wunderground v.1.15,2013-03-07 17:22:00,
2013-03-07 12:27:00,56.4,42.2,30.22,ESE,109,6.0,8.0,59,0.00,,,0.00,Wunderground v.1.15,2013-03-07 17:27:00,
2013-03-07 12:32:00,55.6,43.2,30.23,NNW,332,0.0,4.0,63,0.00,,,0.00,Wunderground v.1.15,2013-03-07 17:32:00,
2013-03-07 12:37:00,56.3,43.0,30.22,SSE,157,3.0,4.0,61,0.00,,,0.00,Wunderground v.1.15,2013-03-07 17:37:00,
2013-03-07 12:42:00,56.1,42.8,30.22,SE,125,3.0,4.0,61,0.00,,,0.00,Wunderground v.1.15,2013-03-07 17:42:00,
2013-03-07 12:47:00,56.4,43.1,30.22,SE,124,2.0,5.0,61,0.00,,,0.00,Wunderground v.1.15,2013-03-07 17:47:00,
2013-03-07 12:52:00,56.2,43.8,30.21,ENE,74,1.0,3.0,63,0.00,,,0.00,Wunderground v.1.15,2013-03-07 17:52:00,
2013-03-07 12:57:00,56.5,43.2,30.22,NE,54,0.0,3.0,61,0.00,,,0.00,Wunderground v.1.15,2013-03-07 17:57:00,
2013-03-07 13:02:00,56.4,43.1,30.21,SE,128,0.0,3.0,61,0.00,,,0.00,Wunderground v.1.15,2013-03-07 18:02:00,
2013-03-07 13:07:00,56.5,43.2,30.20,ESE,123,0.0,5.0,61,0.00,,,0.00,Wunderground v.1.15,2013-03-07 18:07:00,
2013-03-07 13:12:00,56.5,42.3,30.20,SE,141,3.0,8.0,59,0.00,,,0.00,Wunderground v.1.15,2013-03-07 18:12:00,
2013-03-07 13:17:00,56.1,44.1,30.20,East,84,1.0,8.0,64,0.00,,,0.00,Wunderground v.1.15,2013-03-07 18:17:00,
2013-03-07 13:22:00,57.1,44.2,30.20,East,101,1.0,6.0,62,0.00,,,0.00,Wunderground v.1.15,2013-03-07 18:22:00,
2013-03-07 13:27:00,57.9,45.4,30.20,SW,232,2.0,6.0,63,0.00,,,0.00,Wunderground v.1.15,2013-03-07 18:27:00,
2013-03-07 13:33:00,57.3,43.5,30.20,SE,136,0.0,4.0,60,0.00,,,0.00,Wunderground v.1.15,2013-03-07 18:33:00,
2013-03-07 13:38:00,56.6,42.9,30.20,SE,141,5.0,8.0,60,0.00,,,0.00,Wunderground v.1.15,2013-03-07 18:38:00,
2013-03-07 13:43:00,55.7,42.5,30.20,South,169,0.0,8.0,61,0.00,,,0.00,Wunderground v.1.15,2013-03-07 18:43:00,
2013-03-07 13:48:00,56.0,43.2,30.20,NNE,25,0.0,8.0,62,0.00,,,0.00,Wunderground v.1.15,2013-03-07 18:48:00,
2013-03-07 13:53:00,56.8,46.0,30.20,SSW,203,0.0,6.0,67,0.00,,,0.00,Wunderground v.1.15,2013-03-07 18:53:00,
2013-03-07 13:58:00,57.6,44.2,30.19,ESE,111,2.0,6.0,61,0.00,,,0.00,Wunderground v.1.15,2013-03-07 18:58:00,
2013-03-07 14:03:00,57.1,44.2,30.19,ESE,115,0.0,2.0,62,0.00,,,0.00,Wunderground v.1.15,2013-03-07 19:03:00,
2013-03-07 14:08:00,57.2,44.7,30.18,NE,50,0.0,5.0,63,0.00,,,0.00,Wunderground v.1.15,2013-03-07 19:08:00,
2013-03-07 14:13:00,56.8,43.5,30.18,East,98,1.0,5.0,61,0.00,,,0.00,Wunderground v.1.15,2013-03-07 19:13:00,
2013-03-07 14:18:00,56.6,43.3,30.18,SSE,158,0.0,5.0,61,0.00,,,0.00,Wunderground v.1.15,2013-03-07 19:18:00,
2013-03-07 14:23:00,56.5,43.2,30.18,ESE,122,1.0,8.0,61,0.00,,,0.00,Wunderground v.1.15,2013-03-07 19:23:00,
2013-03-07 14:28:00,56.3,44.3,30.18,ESE,104,0.0,8.0,64,0.00,,,0.00,Wunderground v.1.15,2013-03-07 19:28:00,
2013-03-07 14:33:00,56.3,44.7,30.18,East,80,3.0,4.0,65,0.00,,,0.00,Wunderground v.1.15,2013-03-07 19:33:00,
2013-03-07 14:38:00,55.9,43.5,30.18,ESE,122,4.0,7.0,63,0.00,,,0.00,Wunderground v.1.15,2013-03-07 19:38:00,
2013-03-07 14:43:00,55.4,43.4,30.17,East,98,5.0,7.0,64,0.00,,,0.00,Wunderground v.1.15,2013-03-07 19:43:00,
2013-03-07 14:48:00,55.3,43.3,30.17,SE,139,0.0,7.0,64,0.00,,,0.00,Wunderground v.1.15,2013-03-07 19:48:00,
2013-03-07 14:54:00,55.6,43.6,30.17,ESE,113,2.0,2.0,64,0.00,,,0.00,Wunderground v.1.15,2013-03-07 19:54:00,
2013-03-07 14:59:00,55.2,44.0,30.17,SE,128,1.0,4.0,66,0.00,,,0.00,Wunderground v.1.15,2013-03-07 19:59:00,
2013-03-07 15:04:00,55.5,43.9,30.17,SE,140,0.0,5.0,65,0.00,,,0.00,Wunderground v.1.15,2013-03-07 20:04:00,
2013-03-07 15:09:00,55.9,43.9,30.16,East,81,1.0,5.0,64,0.00,,,0.00,Wunderground v.1.15,2013-03-07 20:09:00,
2013-03-07 15:14:00,55.8,44.2,30.16,ENE,72,0.0,3.0,65,0.00,,,0.00,Wunderground v.1.15,2013-03-07 20:14:00,
2013-03-07 15:19:00,55.8,44.6,30.17,North,358,0.0,4.0,66,0.00,,,0.00,Wunderground v.1.15,2013-03-07 20:19:00,
2013-03-07 15:24:00,55.8,43.8,30.17,ESE,107,0.0,3.0,64,0.00,,,0.00,Wunderground v.1.15,2013-03-07 20:24:00,
2013-03-07 15:29:00,56.0,44.8,30.17,East,79,0.0,3.0,66,0.00,,,0.00,Wunderground v.1.15,2013-03-07 20:29:00,
2013-03-07 15:34:00,55.6,44.0,30.16,SE,125,0.0,9.0,65,0.00,,,0.00,Wunderground v.1.15,2013-03-07 20:34:00,
2013-03-07 15:39:00,55.5,44.3,30.16,NE,39,0.0,9.0,66,0.00,,,0.00,Wunderground v.1.15,2013-03-07 20:39:00,
2013-03-07 15:44:00,55.5,43.9,30.16,SE,134,0.0,1.0,65,0.00,,,0.00,Wunderground v.1.15,2013-03-07 20:44:00,
2013-03-07 15:49:00,55.3,43.7,30.15,SE,124,3.0,4.0,65,0.00,,,0.00,Wunderground v.1.15,2013-03-07 20:49:00,
2013-03-07 15:54:00,55.5,43.9,30.15,South,177,0.0,4.0,65,0.00,,,0.00,Wunderground v.1.15,2013-03-07 20:54:00,
2013-03-07 15:59:00,55.6,44.4,30.16,East,84,3.0,4.0,66,0.00,,,0.00,Wunderground v.1.15,2013-03-07 20:59:00,
2013-03-07 16:07:00,55.4,45.0,30.15,WNW,293,0.0,-999.0,67,-99.99,,,0.00,weatherlink.com 1.10,2013-03-07 21:07:00,
2013-03-07 16:26:00,55.2,45.0,30.14,East,95,0.0,-999.0,68,-99.99,,,0.00,weatherlink.com 1.10,2013-03-07 21:26:00,
2013-03-07 16:37:00,55.6,45.0,30.14,NE,48,0.0,-999.0,67,-99.99,,,0.00,weatherlink.com 1.10,2013-03-07 21:37:00,
2013-03-07 16:52:00,55.4,44.0,30.14,East,99,0.0,-999.0,66,-99.99,,,0.00,weatherlink.com 1.10,2013-03-07 21:52:00,
2013-03-07 17:07:00,55.2,44.0,30.13,ESE,105,1.0,-999.0,66,-99.99,,,0.00,weatherlink.com 1.10,2013-03-07 22:07:00,
2013-03-07 17:26:00,55.1,45.0,30.14,SE,130,0.0,-999.0,68,-99.99,,,0.00,weatherlink.com 1.10,2013-03-07 22:26:00,
2013-03-07 17:36:00,54.8,45.0,30.14,ESE,121,0.0,-999.0,70,-99.99,,,0.00,weatherlink.com 1.10,2013-03-07 22:36:00,
2013-03-07 17:51:00,54.2,45.0,30.14,ESE,113,0.0,-999.0,71,-99.99,,,0.00,weatherlink.com 1.10,2013-03-07 22:51:00,
2013-03-07 18:06:00,53.5,45.0,30.15,ENE,71,0.0,-999.0,72,-99.99,,,0.00,weatherlink.com 1.10,2013-03-07 23:06:00,
2013-03-07 18:21:00,52.4,45.0,30.15,ENE,71,0.0,-999.0,75,-99.99,,,0.00,weatherlink.com 1.10,2013-03-07 23:21:00,
2013-03-07 18:37:00,50.9,45.0,30.16,ENE,71,0.0,-999.0,79,-99.99,,,0.00,weatherlink.com 1.10,2013-03-07 23:37:00,
2013-03-07 18:52:00,49.6,44.0,30.16,ENE,71,0.0,-999.0,81,-99.99,,,0.00,weatherlink.com 1.10,2013-03-07 23:52:00,
2013-03-07 19:07:00,48.6,44.0,30.17,ENE,71,0.0,-999.0,84,-99.99,,,0.00,weatherlink.com 1.10,2013-03-08 00:07:00,
2013-03-07 19:26:00,47.8,44.0,30.17,ENE,71,0.0,-999.0,86,-99.99,,,0.00,weatherlink.com 1.10,2013-03-08 00:26:00,
2013-03-07 19:36:00,47.2,44.0,30.18,ENE,71,0.0,-999.0,88,-99.99,,,0.00,weatherlink.com 1.10,2013-03-08 00:36:00,
2013-03-07 19:51:00,46.7,44.0,30.18,ENE,71,0.0,-999.0,89,-99.99,,,0.00,weatherlink.com 1.10,2013-03-08 00:51:00,
2013-03-07 20:06:00,46.4,44.0,30.19,WNW,296,0.0,-999.0,90,-99.99,,,0.00,weatherlink.com 1.10,2013-03-08 01:06:00,
2013-03-07 20:21:00,45.8,43.0,30.18,WNW,296,0.0,-999.0,91,-99.99,,,0.00,weatherlink.com 1.10,2013-03-08 01:21:00,
2013-03-07 20:36:00,45.4,43.0,30.19,WNW,296,0.0,-999.0,92,-99.99,,,0.00,weatherlink.com 1.10,2013-03-08 01:36:00,
2013-03-07 20:51:00,45.1,43.0,30.20,WNW,297,0.0,-999.0,93,-99.99,,,0.00,weatherlink.com 1.10,2013-03-08 01:51:00,
2013-03-07 21:06:00,44.6,43.0,30.20,WNW,296,0.0,-999.0,93,-99.99,,,0.00,weatherlink.com 1.10,2013-03-08 02:06:00,
2013-03-07 21:21:00,44.3,42.0,30.20,WNW,296,0.0,-999.0,93,-99.99,,,0.00,weatherlink.com 1.10,2013-03-08 02:21:00,
2013-03-07 21:37:00,44.1,43.0,30.20,WNW,296,0.0,-999.0,94,-99.99,,,0.00,weatherlink.com 1.10,2013-03-08 02:37:00,
2013-03-07 21:52:00,43.8,42.0,30.20,WNW,296,0.0,-999.0,94,-99.99,,,0.00,weatherlink.com 1.10,2013-03-08 02:52:00,
2013-03-07 22:07:00,43.5,42.0,30.20,WNW,296,0.0,-999.0,94,-99.99,,,0.00,weatherlink.com 1.10,2013-03-08 03:07:00,
2013-03-07 22:27:00,43.4,42.0,30.20,WNW,296,0.0,-999.0,94,-99.99,,,0.00,weatherlink.com 1.10,2013-03-08 03:27:00,
2013-03-07 22:37:00,43.1,42.0,30.20,WNW,296,0.0,-999.0,94,-99.99,,,0.00,weatherlink.com 1.10,2013-03-08 03:37:00,
2013-03-07 22:52:00,42.7,41.0,30.20,WNW,296,0.0,-999.0,94,-99.99,,,0.00,weatherlink.com 1.10,2013-03-08 03:52:00,
2013-03-07 23:07:00,42.5,41.0,30.21,WNW,296,0.0,-999.0,95,-99.99,,,0.00,weatherlink.com 1.10,2013-03-08 04:07:00,
2013-03-07 23:27:00,42.2,41.0,30.20,WNW,296,0.0,-999.0,95,-99.99,,,0.00,weatherlink.com 1.10,2013-03-08 04:27:00,
2013-03-07 23:37:00,41.8,41.0,30.20,WNW,296,0.0,-999.0,95,-99.99,,,0.00,weatherlink.com 1.10,2013-03-08 04:37:00,
2013-03-07 23:52:00,41.3,40.0,30.20,WNW,296,0.0,-999.0,95,-99.99,,,0.00,weatherlink.com 1.10,2013-03-08 04:52:00,